Kokomo, IN

9:22 AM EDT on October 18, 2017 (GMT -0400)
Kokomo Municipal

Weather History for KOKK - January, 2014

Change the Weather History Date:

Wednesday, January 22, 2014

  Actual Average (KGUS) Record (KGUS)
Temperature  
Mean Temperature 5 °F -  
Max Temperature 15 °F 29 °F 58 °F (2017)
Min Temperature -5 °F 16 °F -6 °F (2014)
Degree Days  
Heating Degree Days 60    
Moisture  
Dew Point 2 °F    
Average Humidity 80    
Maximum Humidity 92    
Minimum Humidity 62    
Precipitation  
Precipitation 0.00 in - - ()
Sea Level Pressure  
Sea Level Pressure 30.03 in    
Wind  
Wind Speed 8 mph (SW)    
Max Wind Speed 24 mph    
Max Gust Speed 28 mph    
Visibility 7 miles    
Events      
Averages and records for this station are not official NWS values.
T = Trace of Precipitation, MM = Missing Value Source: NWS Daily Summary

Daily Weather History Graph

Daily Weather History Graph

Search for Another Location

Airport or City:

Trip Planner

Search our weather history database for the weather conditions in past years. The results will help you decide how hot, cold, wet, or windy it might be!

Date:

Astronomy

Jan. 22, 2014 Rise Set
Actual Time 7:01 AM CST 4:50 PM CST
Civil Twilight 6:32 AM CST 5:19 PM CST
Nautical Twilight 5:59 AM CST 5:53 PM CST
Astronomical Twilight 5:26 AM CST 6:25 PM CST
Moon 11:23 PM CST (1/22) 10:01 AM CST (1/22)
Length of Visible Light 10h 47m
Length of Day
9h 48m
Waning Gibbous, 65% of the Moon is Illuminated
Jan 22
Waning Gibbous
Jan 23
Last Quarter
Jan 30
New
Feb 6
First Quarter
Feb 14
Full

Hourly Weather History & Observations

Time (CST) Temp. Windchill Dew Point Humidity Pressure Visibility Wind Dir Wind Speed Gust Speed Precip Events Conditions
12:15 AM -0.4 °F -8.3 °F -5.8 °F 78% 30.17 in 10.0 mi WSW 3.5 mph - N/A   Clear
12:35 AM -0.4 °F - -5.8 °F 78% 30.17 in 10.0 mi Calm Calm - N/A   Clear
12:55 AM -4.0 °F - -9.4 °F 78% 30.17 in 10.0 mi Calm Calm - N/A   Partly Cloudy
1:15 AM -2.2 °F -12.5 °F -5.8 °F 85% 30.17 in 10.0 mi SW 4.6 mph - N/A   Clear
1:35 AM -0.4 °F -8.3 °F -5.8 °F 78% 30.17 in 10.0 mi SW 3.5 mph - N/A   Clear
1:55 AM -2.2 °F -14.2 °F -7.6 °F 78% 30.16 in 10.0 mi SW 5.8 mph - N/A   Clear
2:15 AM -2.2 °F -14.2 °F -5.8 °F 85% 30.15 in 10.0 mi WSW 5.8 mph - N/A   Clear
2:35 AM -2.2 °F -12.5 °F -7.6 °F 78% 30.15 in 10.0 mi WSW 4.6 mph - N/A   Clear
2:55 AM -2.2 °F -12.5 °F -7.6 °F 78% 30.14 in 10.0 mi SW 4.6 mph - N/A   Clear
3:15 AM -2.2 °F -12.5 °F -7.6 °F 78% 30.13 in 10.0 mi WSW 4.6 mph - N/A   Clear
3:35 AM -4.0 °F - -7.6 °F 85% 30.12 in 10.0 mi Calm Calm - N/A   Clear
3:55 AM -2.2 °F - -7.6 °F 78% 30.11 in 10.0 mi Calm Calm - N/A   Clear
4:15 AM -5.8 °F -16.7 °F -11.2 °F 77% 30.10 in 10.0 mi SSW 4.6 mph - N/A   Clear
4:35 AM -4.0 °F -14.6 °F -5.8 °F 92% 30.10 in 10.0 mi SW 4.6 mph - N/A   Clear
4:55 AM -5.8 °F -14.5 °F -11.2 °F 77% 30.10 in 10.0 mi SW 3.5 mph - N/A   Clear
5:15 AM -5.8 °F - -7.6 °F 92% 30.09 in 10.0 mi Calm Calm - N/A   Clear
5:35 AM -5.8 °F -18.4 °F -11.2 °F 77% 30.08 in 10.0 mi South 5.8 mph - N/A   Partly Cloudy
5:55 AM -5.8 °F -14.5 °F -7.6 °F 92% 30.09 in 10.0 mi South 3.5 mph - N/A   Mostly Cloudy
6:15 AM -4.0 °F -12.4 °F -5.8 °F 92% 30.09 in 10.0 mi South 3.5 mph - N/A   Mostly Cloudy
6:35 AM -2.2 °F -12.5 °F -5.8 °F 85% 30.09 in 10.0 mi South 4.6 mph - N/A   Overcast
6:55 AM -0.4 °F -13.4 °F -2.2 °F 92% 30.07 in 10.0 mi South 6.9 mph - N/A   Overcast
7:15 AM -0.4 °F -14.7 °F -4.0 °F 85% 30.06 in 10.0 mi South 8.1 mph - N/A   Overcast
7:35 AM 1.4 °F -14.5 °F -2.2 °F 85% 30.05 in 10.0 mi South 10.4 mph - N/A   Mostly Cloudy
7:55 AM 3.2 °F -12.2 °F -0.4 °F 85% 30.04 in 10.0 mi South 10.4 mph - N/A   Mostly Cloudy
8:15 AM 3.2 °F -13.1 °F -0.4 °F 85% 30.05 in 10.0 mi South 11.5 mph - N/A   Mostly Cloudy
8:35 AM 5.0 °F -10.0 °F -0.4 °F 78% 30.06 in 10.0 mi SSW 10.4 mph - N/A   Overcast
8:55 AM 6.8 °F -8.6 °F 1.4 °F 79% 30.06 in 10.0 mi SSW 11.5 mph - N/A   Overcast
9:15 AM 6.8 °F -9.3 °F 1.4 °F 79% 30.06 in 10.0 mi SSW 12.7 mph - N/A   Overcast
9:35 AM 6.8 °F -7.8 °F 3.2 °F 85% 30.05 in 10.0 mi SSW 10.4 mph - N/A   Overcast
9:55 AM 8.6 °F -5.5 °F 3.2 °F 79% 30.06 in 10.0 mi SSW 10.4 mph - N/A   Overcast
10:15 AM 8.6 °F -5.5 °F 3.2 °F 79% 30.05 in 10.0 mi SSW 10.4 mph - N/A   Mostly Cloudy
10:35 AM 8.6 °F -10.0 °F 3.2 °F 79% 30.03 in 10.0 mi SSW 18.4 mph 21.9 mph N/A   Mostly Cloudy
10:55 AM 10.4 °F -7.2 °F 3.2 °F 73% 30.02 in 10.0 mi SSW 17.3 mph - N/A   Overcast
11:15 AM 10.4 °F -6.6 °F 3.2 °F 73% 30.01 in 10.0 mi SSW 16.1 mph - N/A   Overcast
11:35 AM 10.4 °F -5.4 °F 3.2 °F 73% 29.99 in 10.0 mi SSW 13.8 mph - N/A   Overcast
11:55 AM 12.2 °F -5.3 °F 1.4 °F 62% 29.98 in 10.0 mi SW 18.4 mph 24.2 mph N/A   Mostly Cloudy
12:15 PM 12.2 °F -3.1 °F 1.4 °F 62% 29.97 in 10.0 mi SSW 13.8 mph - N/A   Scattered Clouds
12:35 PM 12.2 °F -3.7 °F 3.2 °F 67% 29.96 in 6.0 mi SW 15.0 mph 20.7 mph N/A   Mostly Cloudy
12:55 PM 12.2 °F -4.3 °F 6.8 °F 79% 29.95 in 4.0 mi SW 16.1 mph 19.6 mph N/A   Overcast
1:15 PM 12.2 °F -2.5 °F 6.8 °F 79% 29.94 in 2.0 mi SW 12.7 mph - N/A   Overcast
1:35 PM 12.2 °F -5.3 °F 6.8 °F 79% 29.94 in 2.5 mi SW 18.4 mph - N/A   Overcast
1:55 PM 12.2 °F -4.3 °F 6.8 °F 79% 29.92 in 2.0 mi SW 16.1 mph 23.0 mph N/A   Overcast
2:15 PM 12.2 °F -4.3 °F 6.8 °F 79% 29.92 in 2.0 mi SW 16.1 mph - N/A   Overcast
2:35 PM 12.2 °F -4.3 °F 6.8 °F 79% 29.92 in 2.5 mi SW 16.1 mph - N/A   Mostly Cloudy
2:55 PM 12.2 °F -4.8 °F 6.8 °F 79% 29.93 in 3.0 mi SW 17.3 mph - N/A   Mostly Cloudy
3:15 PM 14.0 °F -0.8 °F 8.6 °F 79% 29.93 in 2.0 mi SW 13.8 mph - N/A   Overcast
3:35 PM 14.0 °F -1.4 °F 8.6 °F 79% 29.94 in 2.0 mi SW 15.0 mph - N/A   Overcast
3:55 PM 14.0 °F -0.8 °F 8.6 °F 79% 29.94 in 3.0 mi WSW 13.8 mph - N/A   Mostly Cloudy
4:15 PM 14.0 °F -1.4 °F 8.6 °F 79% 29.94 in 3.0 mi SW 15.0 mph - N/A   Partly Cloudy
4:35 PM 14.0 °F 0.5 °F 8.6 °F 79% 29.94 in 3.0 mi SW 11.5 mph - N/A   Clear
4:55 PM 14.0 °F 0.5 °F 10.4 °F 86% 29.94 in 3.0 mi SW 11.5 mph - N/A   Clear
5:15 PM 15.8 °F 2.7 °F 10.4 °F 79% 29.94 in 6.0 mi SW 11.5 mph - N/A   Mostly Cloudy
5:35 PM 15.8 °F 0.9 °F 10.4 °F 79% 29.95 in 3.0 mi SW 15.0 mph - N/A   Overcast
5:55 PM 15.8 °F 2.1 °F 10.4 °F 79% 29.95 in 2.0 mi SW 12.7 mph - N/A   Overcast
6:15 PM 15.8 °F 2.7 °F 12.2 °F 86% 29.94 in 2.5 mi SW 11.5 mph - N/A   Overcast
6:35 PM 15.8 °F 0.9 °F 10.4 °F 79% 29.94 in 2.5 mi SW 15.0 mph - N/A   Overcast
6:55 PM 15.8 °F 2.1 °F 12.2 °F 86% 29.94 in 2.0 mi WSW 12.7 mph 18.4 mph N/A   Overcast
7:15 PM 15.8 °F 2.7 °F 12.2 °F 86% 29.95 in 1.8 mi West 11.5 mph - N/A   Overcast
7:35 PM 15.8 °F -2.7 °F 12.2 °F 86% 29.96 in 0.5 mi WNW 24.2 mph - N/A   Overcast
7:55 PM 12.2 °F -7.1 °F 8.6 °F 85% 29.97 in 1.0 mi WNW 23.0 mph - N/A   Overcast
8:15 PM 12.2 °F -6.3 °F 8.6 °F 85% 29.98 in 1.5 mi NW 20.7 mph 27.6 mph N/A   Clear
8:35 PM 10.4 °F -9.5 °F 6.8 °F 85% 29.99 in 1.5 mi WNW 23.0 mph 27.6 mph N/A   Clear
8:55 PM 10.4 °F -8.2 °F 5.0 °F 79% 30.00 in 2.0 mi WNW 19.6 mph 25.3 mph N/A   Clear
9:15 PM 8.6 °F -10.5 °F 5.0 °F 85% 30.01 in 3.0 mi WNW 19.6 mph 25.3 mph N/A   Partly Cloudy
9:35 PM 8.6 °F -10.0 °F 3.2 °F 79% 30.01 in 5.0 mi WNW 18.4 mph 21.9 mph N/A   Clear
9:55 PM 8.6 °F -8.9 °F 1.4 °F 73% 30.02 in 10.0 mi WNW 16.1 mph - N/A   Clear
10:15 PM 8.6 °F -8.3 °F 3.2 °F 79% 30.03 in 10.0 mi WNW 15.0 mph - N/A   Scattered Clouds
10:35 PM 6.8 °F -10.0 °F 1.4 °F 79% 30.04 in 10.0 mi WNW 13.8 mph - N/A   Partly Cloudy
10:55 PM 6.8 °F -9.3 °F 1.4 °F 79% 30.05 in 10.0 mi WNW 12.7 mph - N/A   Clear
11:15 PM 6.8 °F -9.3 °F 1.4 °F 79% 30.06 in 10.0 mi WNW 12.7 mph - N/A   Clear
11:35 PM 5.0 °F -12.3 °F -0.4 °F 78% 30.07 in 10.0 mi WNW 13.8 mph - N/A   Clear
11:55 PM 5.0 °F -13.0 °F -0.4 °F 78% 30.07 in 10.0 mi WNW 15.0 mph - N/A   Clear